Roswell, NM

2:32 AM MST on February 28, 2017 (GMT -0700)
Roswell Industrial

Weather History for KROW - September, 2014

Change the Weather History Date:

Thursday, September 4, 2014

  Actual Average Record
Temperature  
Mean Temperature 80 °F 76 °F  
Max Temperature 91 °F 89 °F 104 °F (2012)
Min Temperature 68 °F 63 °F 40 °F (1961)
Degree Days  
Heating Degree Days 0 0  
Month to date heating degree days 0 0  
Since 1 July heating degree days 0 0  
Cooling Degree Days 15 11  
Month to date cooling degree days 65 45  
Year to date cooling degree days 1750 1569  
Growing Degree Days 30 (Base 50)    
Moisture  
Dew Point 61 °F    
Average Humidity 59    
Maximum Humidity 81    
Minimum Humidity 36    
Precipitation  
Precipitation 0.05 in 0.06 in 1.95 in (1950)
Month to date precipitation 0.05 0.22  
Year to date precipitation 12.29 9.15  
Sea Level Pressure  
Sea Level Pressure 29.83 in    
Wind  
Wind Speed 12 mph (SSE)    
Max Wind Speed 23 mph    
Max Gust Speed 27 mph    
Visibility 10 miles    
Events Rain    
T = Trace of Precipitation, MM = Missing Value Source: NWS Daily Summary

Daily Weather History Graph

Daily Weather History Graph

Search for Another Location

Airport or City:

Trip Planner

Search our weather history database for the weather conditions in past years. The results will help you decide how hot, cold, wet, or windy it might be!

Date:

Astronomy

Sep. 04, 2014 Rise Set
Actual Time 6:34 AM MDT 7:19 PM MDT
Civil Twilight 6:09 AM MDT 7:44 PM MDT
Nautical Twilight 5:39 AM MDT 8:14 PM MDT
Astronomical Twilight 5:09 AM MDT 8:44 PM MDT
Moon 3:50 PM MDT (9/4) 1:37 AM MDT (9/4)
Length of Visible Light 13h 35m
Length of Day
12h 44m
Waxing Gibbous, 75% of the Moon is Illuminated
Sep 4
Waxing Gibbous
Sep 8
Full
Sep 15
Last Quarter
Sep 24
New
Oct 1
First Quarter

Hourly Weather History & Observations

Time (MDT) Temp. Heat Index Dew Point Humidity Pressure Visibility Wind Dir Wind Speed Gust Speed Precip Events Conditions
12:51 AM 75.9 °F - 61.0 °F 60% 29.75 in 10.0 mi SSE 15.0 mph - N/A   Clear
1:51 AM 73.0 °F - 61.0 °F 66% 29.75 in 10.0 mi SSE 9.2 mph - N/A   Clear
2:51 AM 72.0 °F - 62.1 °F 71% 29.75 in 10.0 mi SSE 11.5 mph - N/A   Clear
3:51 AM 70.0 °F - 62.1 °F 76% 29.75 in 10.0 mi South 9.2 mph - N/A   Clear
4:51 AM 68.0 °F - 62.1 °F 81% 29.75 in 10.0 mi South 9.2 mph - N/A   Clear
5:39 AM 69.1 °F - 62.1 °F 78% 29.97 in 10.0 mi SSE 8.1 mph - N/A   Mostly Cloudy
5:51 AM 69.1 °F - 62.1 °F 78% 29.77 in 10.0 mi SSE 10.4 mph - N/A   Overcast
6:36 AM 70.0 °F - 63.0 °F 78% 29.98 in 10.0 mi SSE 11.5 mph - N/A   Overcast
6:51 AM 70.0 °F - 63.0 °F 78% 29.78 in 10.0 mi SSE 11.5 mph - N/A   Overcast
7:51 AM 70.0 °F - 63.0 °F 78% 29.81 in 10.0 mi SSE 15.0 mph - N/A   Mostly Cloudy
9:14 AM 73.0 °F - 63.0 °F 71% 30.03 in 10.0 mi SSE 17.3 mph - N/A   Overcast
9:44 AM 75.0 °F - 64.0 °F 69% 30.03 in 10.0 mi SSE 13.8 mph - N/A   Scattered Clouds
9:51 AM 75.9 °F - 64.0 °F 67% 29.83 in 10.0 mi SSE 12.7 mph - N/A   Scattered Clouds
11:51 AM 84.0 °F 84.9 °F 63.0 °F 49% 29.81 in - SE 12.7 mph - N/A   Clear
12:51 PM - - - N/A% 29.99 in 10.0 mi South 9.2 mph - N/A   Clear
1:51 PM 90.0 °F 89.7 °F 60.1 °F 37% 29.75 in 10.0 mi ESE 12.7 mph 21.9 mph N/A   Clear
3:51 PM 84.0 °F 84.9 °F 63.0 °F 49% 29.75 in 10.0 mi South 11.5 mph 24.2 mph 0.00 in Rain Light Rain
4:51 PM 84.9 °F 85.4 °F 62.1 °F 46% 29.75 in 10.0 mi SSE 13.8 mph - 0.00 in   Scattered Clouds
5:51 PM 84.9 °F 84.4 °F 59.0 °F 41% 29.75 in 10.0 mi South 9.2 mph - N/A   Partly Cloudy
6:51 PM 84.0 °F 83.8 °F 59.0 °F 43% 29.76 in 10.0 mi SSE 10.4 mph - 0.00 in Rain Light Rain
7:51 PM 82.0 °F 82.0 °F 57.9 °F 44% 29.78 in 10.0 mi SE 11.5 mph - 0.00 in   Clear
8:51 PM 81.0 °F 80.8 °F 55.9 °F 42% 29.83 in 10.0 mi SE 17.3 mph - N/A   Partly Cloudy
9:51 PM 79.0 °F - 57.0 °F 47% 29.85 in 10.0 mi SSE 10.4 mph - 0.00 in   Overcast
10:51 PM 78.1 °F - 57.9 °F 50% 29.86 in 10.0 mi South 6.9 mph - N/A   Overcast
11:51 PM 70.0 °F - 64.0 °F 81% 29.89 in 10.0 mi North 9.2 mph - 0.00 in Rain Light Rain